Date String (YYYY-MM-DD hh:mm:ss) UTC,Instrument flags,absolute air pressure of the measurement (hPa),sample flow rate (lpm),inlet stack bypass flow (lpm),air temperature of the measurement (°C),ambient temperature measured by the external sensor (°C),aerosol sample conditioner tube jacket temperature (°C),OPC LED temperature (°C),internal box temperature (°C),relative humidity of the measurement (%),span deviation,mass concentration of particles derived from Lorenz-Mie calculation of OPC scattering (μg/m³),mass concentration of particles derived from Lorenz-Mie calculation of OPC scattering (μg/m³),mass concentration of particles derived from Lorenz-Mie calculation of OPC scattering (μg/m³)
DateTimeUTC,F1_M11,P_M11,Q1_M11,Q2_M11,T1_M11,T2_M11,T3_M11,T4_M11,T5_M11,U1_M11,ZSPAN_M11,X0_M11,X2_M11,X1_M11
2023-08-07 04:00:00,SystemResetWarning,0835.1,5.00,000.00,029.4,027.8,000.0,038.1,031.0,31.8,-001.3,0011.61,0008.70,0008.17
2023-08-07 04:01:00,SystemResetWarning,0835.2,5.00,000.00,029.5,027.9,000.0,038.1,031.1,31.5,-001.3,0011.72,0008.66,0008.13
2023-08-07 04:02:00,SystemResetWarning,0835.3,5.00,000.00,029.5,028.0,000.0,038.1,031.1,31.5,-001.3,0012.36,0008.67,0008.13
2023-08-07 04:03:00,SystemResetWarning,0835.4,5.00,000.00,029.5,028.1,000.0,038.1,031.1,31.5,-001.4,0012.29,0008.66,0008.13
2023-08-07 04:04:00,SystemResetWarning,0835.5,5.00,000.00,029.5,028.1,000.0,038.1,031.1,31.4,-001.6,0012.18,0008.65,0008.14
2023-08-07 04:05:00,SystemResetWarning,0835.3,5.00,000.00,029.5,028.2,000.0,038.1,031.1,31.2,-001.6,0012.26,0008.69,0008.16
2023-08-07 04:06:00,SystemResetWarning,0835.2,5.00,000.00,029.5,028.2,000.0,038.1,031.1,31.1,-001.4,0012.19,0008.69,0008.19
2023-08-07 04:07:00,SystemResetWarning,0835.0,5.00,000.00,029.5,028.2,000.0,038.1,031.1,31.2,-001.6,0012.54,0008.72,0008.21
2023-08-07 04:08:00,SystemResetWarning,0835.1,5.00,000.00,029.6,028.3,000.0,038.2,031.2,31.3,-001.7,0013.79,0008.77,0008.24
2023-08-07 04:09:00,SystemResetWarning,0835.2,5.00,000.00,029.6,028.3,000.0,038.2,031.2,31.4,-001.7,0013.92,0008.81,0008.25
2023-08-07 04:10:00,SystemResetWarning,0835.1,4.99,000.00,029.6,028.3,000.0,038.2,031.2,31.5,-001.5,0013.93,0008.80,0008.25
2023-08-07 04:11:00,SystemResetWarning,0835.0,4.99,000.00,029.6,028.4,000.0,038.2,031.2,31.5,-001.4,0013.97,0008.82,0008.27
2023-08-07 04:12:00,SystemResetWarning,0835.0,5.00,000.00,029.6,028.4,000.0,038.2,031.2,31.9,-001.1,0013.94,0008.84,0008.28
2023-08-07 04:13:00,SystemResetWarning,0835.0,5.00,000.00,029.7,028.4,000.0,038.2,031.3,32.4,-001.0,0013.31,0008.81,0008.26
2023-08-07 04:14:00,SystemResetWarning,0835.2,5.00,000.00,029.7,028.5,000.0,038.2,031.3,32.2,-000.8,0013.24,0008.81,0008.24
2023-08-07 04:15:00,SystemResetWarning,0835.4,5.00,000.00,029.7,028.5,000.0,038.3,031.3,32.3,-000.8,0013.35,0008.84,0008.23
2023-08-07 04:16:00,SystemResetWarning,0835.5,5.00,000.00,029.7,028.5,000.0,038.3,031.3,32.4,-000.9,0013.32,0008.81,0008.22
2023-08-07 04:17:00,SystemResetWarning,0835.5,5.00,000.00,029.7,028.6,000.0,038.3,031.4,32.6,-000.8,0013.39,0008.83,0008.22
2023-08-07 04:18:00,SystemResetWarning,0835.6,5.00,000.00,029.8,028.6,000.0,038.3,031.4,32.5,-000.6,0013.21,0008.81,0008.22
2023-08-07 04:19:00,SystemResetWarning,0835.5,4.98,000.00,029.8,028.6,000.0,038.3,031.4,32.3,-000.7,0012.24,0008.80,0008.23
2023-08-07 04:20:00,SystemResetWarning,0835.5,4.99,000.00,029.8,028.6,000.0,038.4,031.4,32.4,-000.7,0012.48,0008.83,0008.25
2023-08-07 04:21:00,SystemResetWarning,0835.5,5.00,000.00,029.8,028.7,000.0,038.4,031.4,32.1,-000.8,0012.59,0008.89,0008.27
2023-08-07 04:22:00,SystemResetWarning,0835.3,5.00,000.00,029.8,028.7,000.0,038.4,031.4,32.1,-000.8,0012.50,0008.85,0008.26
2023-08-07 04:23:00,SystemResetWarning,0835.3,5.00,000.00,029.8,028.7,000.0,038.4,031.5,32.1,-001.0,0012.88,0008.84,0008.27
2023-08-07 04:24:00,SystemResetWarning,0835.1,5.01,000.00,029.9,028.7,000.0,038.4,031.5,32.2,-001.1,0012.99,0008.86,0008.28
2023-08-07 04:25:00,SystemResetWarning,0835.0,5.00,000.00,029.9,028.7,000.0,038.4,031.5,32.3,-001.0,0013.38,0008.84,0008.30
2023-08-07 04:26:00,SystemResetWarning,0835.0,5.00,000.00,029.9,028.8,000.0,038.4,031.5,32.3,-001.0,0013.65,0008.83,0008.32
2023-08-07 04:27:00,SystemResetWarning,0835.1,4.99,000.00,029.9,028.8,000.0,038.5,031.5,32.0,-000.8,0013.99,0008.86,0008.32
2023-08-07 04:28:00,SystemResetWarning,0835.1,4.99,000.00,029.9,028.8,000.0,038.5,031.5,32.1,-000.7,0014.09,0008.87,0008.32
2023-08-07 04:29:00,SystemResetWarning,0835.2,4.99,000.00,030.0,028.8,000.0,038.5,031.6,32.2,-000.9,0014.22,0008.90,0008.32
2023-08-07 04:30:00,SystemResetWarning,0835.2,5.00,000.00,030.0,028.7,000.0,038.5,031.6,32.3,-000.7,0014.33,0008.90,0008.32
2023-08-07 04:31:00,SystemResetWarning,0835.1,5.00,000.00,030.0,027.0,000.0,038.4,031.4,32.2,-000.6,0013.93,0008.90,0008.32
2023-08-07 04:32:00,SystemResetWarning,0834.9,5.00,000.00,029.9,025.6,000.0,038.3,031.1,32.2,-000.6,0013.93,0008.90,0008.33
2023-08-07 04:33:00,SystemResetWarning,0835.2,5.00,000.00,029.7,025.3,000.0,038.2,030.8,32.2,-000.5,0013.99,0008.93,0008.35
2023-08-07 04:34:00,SystemResetWarning,0835.1,5.01,000.00,029.6,025.6,000.0,038.2,030.7,32.5,-000.5,0013.49,0008.93,0008.35
2023-08-07 04:35:00,SystemResetWarning,0835.3,4.99,000.00,029.5,026.0,000.0,038.2,030.8,32.6,-000.3,0013.35,0008.92,0008.35
2023-08-07 04:36:00,SystemResetWarning,0835.4,5.00,000.00,029.5,026.4,000.0,038.2,030.9,32.6,-000.4,0013.21,0008.95,0008.35
2023-08-07 04:37:00,SystemResetWarning,0835.2,5.01,000.00,029.5,026.8,000.0,038.2,030.9,32.6,-000.1,0012.82,0008.96,0008.34
2023-08-07 04:38:00,SystemResetWarning,0834.9,5.00,000.00,029.5,027.1,000.0,038.2,031.0,32.7,-000.3,0012.46,0008.92,0008.32
2023-08-07 04:39:00,SystemResetWarning,0835.1,5.00,000.00,029.5,027.3,000.0,038.2,031.0,32.9,-000.7,0012.32,0008.90,0008.33
2023-08-07 04:40:00,SystemResetWarning,0835.2,5.00,000.00,029.5,027.6,000.0,038.2,031.0,33.0,-000.7,0012.23,0008.87,0008.32
2023-08-07 04:41:00,SystemResetWarning,0835.3,5.00,000.00,029.5,027.7,000.0,038.2,031.1,33.2,-000.7,0012.11,0008.84,0008.31
2023-08-07 04:42:00,SystemResetWarning,0835.5,5.01,000.00,029.5,027.9,000.0,038.2,031.1,33.3,-001.1,0011.90,0008.81,0008.30
2023-08-07 04:43:00,SystemResetWarning,0835.7,5.00,000.00,029.5,028.0,000.0,038.2,031.1,33.4,-001.1,0011.73,0008.77,0008.29
2023-08-07 04:44:00,SystemResetWarning,0835.6,5.00,000.00,029.6,028.1,000.0,038.2,031.1,33.4,-001.4,0011.69,0008.76,0008.28
2023-08-07 04:45:00,SystemResetWarning,0835.7,5.00,000.00,029.6,028.2,000.0,038.2,031.2,33.3,-001.7,0011.66,0008.71,0008.25
2023-08-07 04:46:00,SystemResetWarning,0835.8,5.00,000.00,029.6,028.2,000.0,038.2,031.2,33.2,-002.0,0011.72,0008.71,0008.25
2023-08-07 04:47:00,SystemResetWarning,0835.8,5.00,000.00,029.6,028.3,000.0,038.2,031.2,33.0,-001.8,0011.72,0008.74,0008.26
2023-08-07 04:48:00,SystemResetWarning,0835.9,4.99,000.00,029.6,028.3,000.0,038.2,031.2,32.8,-001.9,0011.67,0008.72,0008.26
2023-08-07 04:49:00,SystemResetWarning,0835.9,4.99,000.00,029.6,028.4,000.0,038.2,031.3,32.6,-001.9,0011.91,0008.74,0008.27
2023-08-07 04:50:00,SystemResetWarning,0835.8,5.00,000.00,029.7,028.4,000.0,038.3,031.3,32.7,-001.8,0012.16,0008.73,0008.25
2023-08-07 04:51:00,SystemResetWarning,0835.8,5.01,000.00,029.7,028.4,000.0,038.3,031.3,32.6,-001.9,0012.11,0008.70,0008.22
2023-08-07 04:52:00,SystemResetWarning,0835.7,5.00,000.00,029.7,028.5,000.0,038.3,031.3,32.6,-001.9,0011.97,0008.65,0008.18
2023-08-07 04:53:00,SystemResetWarning,0835.8,5.00,000.00,029.7,028.5,000.0,038.3,031.3,32.6,-001.8,0011.83,0008.59,0008.12
2023-08-07 04:54:00,SystemResetWarning,0835.6,5.00,000.00,029.7,028.5,000.0,038.3,031.3,32.5,-001.9,0011.69,0008.46,0008.02
2023-08-07 04:55:00,SystemResetWarning,0835.4,5.00,000.00,029.7,028.5,000.0,038.3,031.4,32.5,-001.7,0011.51,0008.30,0007.87
2023-08-07 04:56:00,SystemResetWarning,0835.2,5.00,000.00,029.8,028.6,000.0,038.3,031.4,32.5,-001.3,0011.33,0008.14,0007.70
2023-08-07 04:57:00,SystemResetWarning,0835.2,5.00,000.00,029.8,028.6,000.0,038.4,031.4,32.6,-001.0,0011.13,0007.96,0007.52
2023-08-07 04:58:00,SystemResetWarning,0835.1,5.00,000.00,029.8,028.6,000.0,038.4,031.4,32.6,-001.4,0010.82,0007.73,0007.32
2023-08-07 04:59:00,SystemResetWarning,0835.1,5.00,000.00,029.8,028.6,000.0,038.4,031.4,32.7,-001.5,0010.56,0007.54,0007.16
